Location: Gwatt
(46.7204°N, 7.6223°E)
Time: 06:21:23
(UTC+00:00)

Courier 1B - All Passes

Search period start: 28 January 2021 00:00
Search period end: 07 February 2021 00:00
Orbit: 962 x 1209 km, 28.3° (Epoch: 27 January)

Date Brightness Start Highest point End Pass type
(mag) Time Alt. Az. Time Alt. Az. Time Alt. Az.
28 Jan - 01:06:11 10° SSW 01:08:03 11° SSW 01:09:54 10° S night (unlit)
28 Jan - 22:18:17 10° SSW 22:21:56 15° S 22:25:29 10° SE night (unlit)
29 Jan - 00:11:47 10° SW 00:14:39 13° S 00:17:28 10° SSE night (unlit)
29 Jan - 21:24:56 10° SSW 21:28:28 15° S 21:31:55 10° SE night (unlit)
29 Jan - 23:17:46 10° SW 23:21:13 15° S 23:24:36 10° SSE night (unlit)
30 Jan - 20:31:44 10° SSW 20:34:59 14° S 20:38:10 10° SE visible
30 Jan - 22:23:56 10° SW 22:27:47 16° S 22:31:31 10° SSE night (unlit)
31 Jan - 00:19:57 10° SSW 00:20:26 10° SSW 00:20:55 10° SSW night (unlit)
31 Jan - 19:38:52 10° S 19:41:30 12° SSE 19:44:06 10° SE visible
31 Jan - 21:30:14 10° SW 21:34:18 16° S 21:38:15 10° SE night (unlit)
31 Jan - 23:24:26 10° SW 23:27:02 12° SSW 23:29:35 10° S night (unlit)
01 Feb - 18:46:48 10° S 18:48:00 10° SSE 18:49:12 10° SSE visible
01 Feb - 20:36:39 10° SSW 20:40:48 16° S 20:44:50 10° SE visible
01 Feb - 22:30:07 10° SW 22:33:36 14° S 22:36:59 10° SSE night (unlit)
02 Feb - 19:43:14 10° SSW 19:47:17 16° S 19:51:14 10° SE visible
02 Feb - 21:36:05 10° SW 21:40:07 16° S 21:44:03 10° SSE visible
03 Feb - 18:50:00 10° SSW 18:53:45 14° SSE 18:57:26 10° SE visible
03 Feb - 20:42:13 10° SW 20:46:38 17° S 20:50:53 10° SE visible
03 Feb - 22:37:10 10° SW 22:39:21 12° SSW 22:41:30 10° S night (unlit)
04 Feb - 17:57:05 10° S 18:00:13 13° SSE 18:03:18 10° SE visible
04 Feb - 19:48:29 10° SW 19:53:05 17° S 19:57:33 10° SE visible
04 Feb - 21:42:29 10° SW 21:45:54 14° SSW 21:49:14 10° SSE visible
05 Feb - 17:04:51 10° S 17:06:40 11° SSE 17:08:30 10° SE visible
05 Feb - 18:54:55 10° SSW 18:59:32 17° S 19:04:02 10° SE visible
05 Feb - 20:48:15 10° SW 20:52:25 16° S 20:56:27 10° SSE visible
06 Feb - 18:01:30 10° SSW 18:05:57 16° S 18:10:19 10° SE visible
06 Feb - 19:54:15 10° SW 19:58:53 17° S 20:03:22 10° SSE visible
06 Feb - 21:50:17 10° SSW 21:51:37 11° SSW 21:52:56 10° S visible
